FW8840 Weather Reports


Display with metric or nautical units.
time (UTC)temp
F
wind
direction
speed
MPH
gust
MPH
rain 1hr
in
rain 24hr
in
rain mn
in
humidity
%
barometer
mb
20260506142549 77 167 6.0 10.0 0.00 0.00 0.00 49 1014.3
20260506141528 77 162 6.0 10.0 0.00 0.00 0.00 49 1014.3
20260506140549 77 178 8.0 14.0 0.00 0.00 0.00 46 1014.4
20260506135528 77 170 8.0 12.0 0.00 0.00 0.00 46 1014.4
20260506134528 77 157 6.0 9.0 0.00 0.00 0.00 46 1014.5
20260506133548 77 191 9.0 15.0 0.00 0.00 0.00 45 1014.5
20260506132528 78 162 8.0 14.0 0.00 0.00 0.00 45 1014.6
20260506131548 78 148 7.0 13.0 0.00 0.00 0.00 45 1014.7
20260506130528 78 138 6.0 15.0 0.00 0.00 0.00 46 1014.8
20260506125548 78 145 7.0 11.0 0.00 0.00 0.00 45 1014.9
20260506124528 78 168 7.0 15.0 0.00 0.00 0.00 46 1015.0
20260506123528 78 175 8.0 14.0 0.00 0.00 0.00 45 1015.0
20260506122528 78 170 7.0 13.0 0.00 0.00 0.00 44 1015.1
20260506121528 78 170 7.0 11.0 0.00 0.00 0.00 45 1015.1
20260506120528 78 186 9.0 15.0 0.00 0.00 0.00 44 1015.1
20260506115528 79 146 7.0 11.0 0.00 0.00 0.00 43 1015.3
20260506114528 78 152 6.0 11.0 0.00 0.00 0.00 46 1015.5
20260506113528 78 163 6.0 9.0 0.00 0.00 0.00 47 1015.6
20260506112528 77 157 7.0 9.0 0.00 0.00 0.00 50 1015.6
20260506111528 77 163 6.0 11.0 0.00 0.00 0.00 53 1015.6
20260506110528 77 177 6.0 11.0 0.00 0.00 0.00 53 1015.7
20260506105529 78 166 7.0 11.0 0.00 0.00 0.00 52 1015.7
20260506104528 79 195 5.0 9.0 0.00 0.00 0.00 51 1015.7
20260506103528 80 209 3.0 7.0 0.00 0.00 0.00 47 1015.8
20260506102528 80 237 3.0 6.0 0.00 0.00 0.00 44 1015.8
20260506101528 79 255 3.0 5.0 0.00 0.00 0.00 44 1016.0
20260506100528 77 278 4.0 6.0 0.00 0.00 0.00 45 1016.0
20260506095528 76 275 4.0 7.0 0.00 0.00 0.00 48 1016.0
20260506094528 76 303 6.0 7.0 0.00 0.00 0.00 48 1016.1
20260506093548 76 296 5.0 8.0 0.00 0.00 0.00 47 1016.2
20260506092548 76 265 5.0 7.0 0.00 0.00 0.00 47 1016.1
20260506091528 76 310 4.0 6.0 0.00 0.00 0.00 48 1016.2
20260506090528 76 308 4.0 7.0 0.00 0.00 0.00 48 1016.1
20260506085528 75 357 4.0 6.0 0.00 0.00 0.00 49 1016.1
20260506084608 76 291 4.0 7.0 0.00 0.00 0.00 50 1016.2
20260506083528 76 313 3.0 5.0 0.00 0.00 0.00 49 1016.0
20260506082528 75 337 4.0 7.0 0.00 0.00 0.00 49 1016.0
20260506081528 75 281 3.0 5.0 0.00 0.00 0.00 49 1016.0
20260506080528 74 11 3.0 4.0 0.00 0.00 0.00 48 1016.0
20260506073528 73 301 3.0 4.0 0.00 0.00 0.00 49 1015.9
20260506072527 72 324 2.0 4.0 0.00 0.00 0.00 51 1015.9
20260506071527 71 286 1.0 4.0 0.00 0.00 0.00 51 1015.9
20260506070528 71 279 1.0 2.0 0.00 0.00 0.00 54 1016.0
20260506061547 68 31 1.0 2.0 0.00 0.00 0.00 62 1016.3
20260506060547 68 202 1.0 2.0 0.00 0.00 0.00 62 1016.3
20260506050527 63 202 0.0 1.0 0.00 0.00 0.00 73 1016.2
20260506044527 56 202 0.0 1.0 0.00 0.00 0.00 83 1016.0
20260506043527 54 202 1.0 2.0 0.00 0.00 0.00 86 1015.8
20260506042526 53 202 1.0 2.0 0.00 0.00 0.00 89 1015.8
20260506041526 51 202 3.0 4.0 0.00 0.00 0.00 91 1015.6
20260506040526 51 202 3.0 4.0 0.00 0.00 0.00 92 1015.6
20260506035626 50 202 2.0 4.0 0.00 0.00 0.00 93 1015.5
20260506034606 50 202 3.0 5.0 0.00 0.00 0.00 94 1015.5
20260506033546 49 202 3.0 4.0 0.00 0.00 0.00 94 1015.5
20260506032526 50 187 3.0 4.0 0.00 0.00 0.00 94 1015.5
20260506031526 50 202 2.0 4.0 0.00 0.00 0.00 94 1015.4
20260506030526 50 202 2.0 4.0 0.00 0.00 0.00 94 1015.4
20260506025526 50 202 2.0 4.0 0.00 0.00 0.00 94 1015.4
20260506024526 50 202 1.0 2.0 0.00 0.00 0.00 94 1015.4
20260506023526 50 202 3.0 4.0 0.00 0.00 0.00 93 1015.5
20260506022526 50 202 2.0 4.0 0.00 0.00 0.00 93 1015.5
20260506021526 51 202 2.0 4.0 0.00 0.00 0.00 92 1015.5
20260506020525 52 202 2.0 4.0 0.00 0.00 0.00 91 1015.4
20260506015525 52 202 3.0 4.0 0.00 0.00 0.00 91 1015.3
20260506014525 52 202 3.0 4.0 0.00 0.00 0.00 90 1015.4
20260506013525 53 202 5.0 7.0 0.00 0.00 0.00 90 1015.4
20260506012525 53 202 4.0 5.0 0.00 0.00 0.00 88 1015.4
20260506011525 54 202 3.0 4.0 0.00 0.00 0.00 87 1015.4
20260506010525 55 202 4.0 4.0 0.00 0.00 0.00 85 1015.4
20260506005605 57 270 4.0 4.0 0.00 0.00 0.00 83 1015.4
20260506004525 58 270 2.0 4.0 0.00 0.00 0.00 80 1015.3
20260506003525 58 263 3.0 5.0 0.00 0.00 0.00 81 1015.2
20260506002524 57 278 4.0 6.0 0.00 0.00 0.00 82 1015.2
20260506001525 57 256 2.0 4.0 0.00 0.00 0.00 81 1015.2
20260506000524 55 248 3.0 4.0 0.00 0.00 0.00 80 1015.1
20260505235525 55 206 2.0 4.0 0.00 0.00 0.00 76 1015.1
20260505234525 55 202 3.0 4.0 0.00 0.00 0.00 75 1015.0
20260505233525 57 202 2.0 4.0 0.00 0.00 0.00 68 1015.0
20260505232544 57 202 1.0 4.0 0.00 0.00 0.00 63 1014.9
20260505231524 58 202 0.0 0.0 0.00 0.00 0.00 61 1014.9
20260505230524 59 202 0.0 0.0 0.00 0.00 0.00 58 1014.9
20260505225524 60 292 0.0 0.0 0.00 0.00 0.00 55 1014.9
20260505224524 60 292 0.0 0.0 0.00 0.00 0.00 55 1014.9
20260505223524 59 102 1.0 3.0 0.00 0.00 0.00 57 1014.9
20260505222604 59 102 1.0 2.0 0.00 0.00 0.00 57 1014.9
20260505221524 60 102 1.0 5.0 0.00 0.00 0.00 57 1014.9
20260505220524 61 180 2.0 4.0 0.00 0.00 0.00 57 1014.8
20260505215524 63 180 3.0 4.0 0.00 0.00 0.00 56 1014.8
20260505214524 64 150 4.0 5.0 0.00 0.00 0.00 51 1014.7
20260505213523 65 120 5.0 7.0 0.00 0.00 0.00 47 1014.6
20260505212523 65 111 5.0 9.0 0.00 0.00 0.00 47 1014.6
20260505211523 65 108 6.0 9.0 0.00 0.00 0.00 46 1014.5
20260505210523 65 119 6.0 9.0 0.00 0.00 0.00 47 1014.5
20260505205543 65 120 4.0 7.0 0.00 0.00 0.00 47 1014.6
20260505204524 65 105 5.0 8.0 0.00 0.00 0.00 47 1014.5
20260505203523 65 112 5.0 7.0 0.00 0.00 0.00 47 1014.5
20260505202523 65 117 5.0 9.0 0.00 0.00 0.00 47 1014.4
20260505201523 65 114 6.0 7.0 0.00 0.00 0.00 47 1014.4
20260505200543 66 112 5.0 9.0 0.00 0.00 0.00 47 1014.2
20260505195543 66 112 6.0 9.0 0.00 0.00 0.00 47 1014.2
20260505194523 66 102 6.0 10.0 0.00 0.00 0.00 47 1014.1
20260505193544 65 114 7.0 11.0 0.00 0.00 0.00 48 1014.2
20260505192523 64 118 5.0 9.0 0.00 0.00 0.00 50 1014.1
20260505191543 62 107 4.0 6.0 0.00 0.00 0.00 53 1014.0
20260505190523 60 105 3.0 7.0 0.00 0.00 0.00 56 1013.8
20260505185543 60 76 3.0 5.0 0.00 0.00 0.00 64 1013.7
20260505184523 60 68 2.0 4.0 0.00 0.00 0.00 66 1013.7
20260505183522 61 90 0.0 0.0 0.00 0.00 0.00 64 1013.6
20260505182522 62 90 0.0 0.0 0.00 0.00 0.00 61 1013.5
20260505181522 65 180 1.0 2.0 0.00 0.00 0.00 58 1013.4
20260505180522 67 102 1.0 3.0 0.00 0.00 0.00 52 1013.3
20260505175522 69 155 4.0 6.0 0.00 0.00 0.00 47 1013.2
20260505174523 69 125 5.0 8.0 0.00 0.00 0.00 43 1013.2
20260505173522 69 113 4.0 7.0 0.00 0.00 0.00 44 1013.2
20260505172521 69 92 4.0 6.0 0.00 0.00 0.00 44 1013.2
20260505171521 70 116 3.0 5.0 0.00 0.00 0.00 45 1013.1
20260505170522 70 121 5.0 7.0 0.00 0.00 0.00 45 1013.0
20260505165521 71 103 3.0 6.0 0.00 0.00 0.00 48 1013.2
20260505164522 71 111 2.0 4.0 0.00 0.00 0.00 50 1013.1
20260505163521 72 163 5.0 9.0 0.00 0.00 0.00 49 1012.9
20260505162521 73 161 6.0 9.0 0.00 0.00 0.00 49 1013.0
20260505161522 74 174 6.0 11.0 0.00 0.00 0.00 46 1013.0
20260505160522 75 185 8.0 13.0 0.00 0.00 0.00 45 1013.1
20260505152521 80 174 8.0 13.0 0.00 0.00 0.00 35 1013.3
20260505151522 80 201 6.0 10.0 0.00 0.00 0.00 31 1013.3
20260505150542 80 203 7.0 9.0 0.00 0.00 0.00 28 1013.3